Location: *
(40.9167°N, 9.5000°E)
Time: 21:11:12
(UTC+00:00)

ATLAS 5 CENTAUR R/B - Pass Details

Date: 09 April 2020
Orbit: 543 x 1116 km, 63.4° (Epoch: 01 May)

Event Time Altitude Azimuth Distance (km) Brightness Sun altitude
Rises 18:13:28 0° 196° (SSW) 2,692 4.9 -4.1°
Reaches altitude 10° 18:15:39 10° 189° (S) 1,821 3.9 -4.5°
Maximum altitude 18:19:28 42° 118° (ESE) 829 1.8 -5.2°
Drops below altitude 10° 18:23:39 10° 47° (NE) 1,996 3.9 -6.0°
Sets 18:26:09 0° 41° (NE) 2,988 4.8 -6.4°
